TimeMDT,TemperatureF,Dew PointF,Humidity,Sea Level PressureIn,VisibilityMPH,Wind Direction,Wind SpeedMPH,Gust SpeedMPH,PrecipitationIn,Events,Conditions,WindDirDegrees,DateUTC
12:53 AM,72.0,52.0,49,29.97,10.0,ESE,12.7,-,N/A,,Clear,110,2013-06-30 06:53:00
1:53 AM,71.1,51.1,49,29.98,10.0,East,11.5,-,N/A,,Clear,100,2013-06-30 07:53:00
2:53 AM,68.0,51.1,55,29.97,10.0,East,8.1,-,N/A,,Partly Cloudy,90,2013-06-30 08:53:00
3:53 AM,66.0,51.1,59,29.97,10.0,East,5.8,-,N/A,,Clear,90,2013-06-30 09:53:00
4:53 AM,63.0,51.1,65,29.99,10.0,East,3.5,-,N/A,,Clear,80,2013-06-30 10:53:00
5:53 AM,60.1,51.1,72,30.01,10.0,NE,4.6,-,N/A,,Clear,50,2013-06-30 11:53:00
6:53 AM,63.0,51.1,65,30.02,10.0,NE,3.5,-,N/A,,Clear,50,2013-06-30 12:53:00
7:53 AM,70.0,48.9,47,30.02,10.0,East,8.1,-,N/A,,Clear,100,2013-06-30 13:53:00
8:53 AM,72.0,48.0,43,30.04,10.0,ESE,11.5,-,N/A,,Clear,120,2013-06-30 14:53:00
9:53 AM,77.0,43.0,30,30.03,10.0,SE,11.5,20.7,N/A,,Clear,130,2013-06-30 15:53:00
10:53 AM,80.1,46.0,30,30.01,10.0,SE,13.8,18.4,N/A,,Clear,130,2013-06-30 16:53:00
11:53 AM,80.1,44.1,28,30.00,10.0,ENE,12.7,-,N/A,,Clear,70,2013-06-30 17:53:00
12:53 PM,75.9,46.0,35,30.06,10.0,NNE,8.1,-,0.00,Rain,Light Rain,20,2013-06-30 18:53:00
1:53 PM,64.9,57.0,75,30.07,5.0,East,11.5,-,0.04,Rain,Light Rain,80,2013-06-30 19:53:00
2:53 PM,66.9,57.0,70,30.06,10.0,ESE,10.4,-,0.01,,Scattered Clouds,120,2013-06-30 20:53:00
3:53 PM,72.0,55.9,57,30.03,10.0,East,11.5,-,N/A,,Clear,80,2013-06-30 21:53:00
4:53 PM,73.0,54.0,51,30.05,10.0,ESE,4.6,-,N/A,,Scattered Clouds,120,2013-06-30 22:53:00
5:53 PM,73.0,54.0,51,30.04,10.0,Calm,Calm,-,N/A,,Scattered Clouds,0,2013-06-30 23:53:00
6:53 PM,73.9,53.1,48,30.03,10.0,Calm,Calm,-,N/A,,Partly Cloudy,0,2013-07-01 00:53:00
7:53 PM,72.0,55.0,55,30.02,10.0,Calm,Calm,-,N/A,,Clear,0,2013-07-01 01:53:00
8:53 PM,69.1,57.9,68,30.04,10.0,WSW,4.6,-,N/A,,Overcast,240,2013-07-01 02:53:00
9:53 PM,66.0,57.9,75,30.06,10.0,WSW,6.9,-,N/A,,Clear,240,2013-07-01 03:53:00
10:53 PM,64.9,57.9,78,30.07,10.0,Calm,Calm,-,N/A,,Clear,0,2013-07-01 04:53:00
11:53 PM,64.9,59.0,81,30.07,10.0,Calm,Calm,-,N/A,,Clear,0,2013-07-01 05:53:00